Location: Chakepay
(13.3931°S, 72.1925°W)
Time: 03:19:54
(UTC+00:00)

Cosmos 1867 - Pass Details

Date: 15 November 2019
Orbit: 776 x 799 km, 65.0° (Epoch: 07 December)

Event Time Altitude Azimuth Distance (km) Brightness Sun altitude
Exits shadow 07:59:21 42° 56° (ENE) 1,105 4.4 -30.1°
Maximum altitude 07:59:47 43° 69° (ENE) 1,091 4.4 -30.0°
Drops below altitude 10° 08:04:51 10° 140° (SE) 2,342 6.8 -28.9°
Sets 08:07:22 0° 146° (SE) 3,271 7.7 -28.4°
